Vertical_Velocity
-2 2 2 -0 0 0 -0 -1 -1 1 0 -0 2 1 -0 0 1 1 -1 -0 -3 -3 3 -1 1 -1 6 0 -4 3 -9 -4 -2 -4 -3 -3 -0 -4 -1 -4 -5 -6 -5 -1 1 1 -12 1 -1 -13 -8 6 -0 -1
3 -0 -0 0 0 2 0 -0 0 -0 0 1 1 2 1 0 1 -2 -3 -1 -1 -3 -1 3 2 0 -0 -3 -5 6 -2 -1 -2 -4 -0 -1 -0 -1 -1 -3 2 -7 -12 -12 -13 -16 -5 1 -3 -3 0 -5 1 -1
11 1 1 1 2 1 -1 1 0 -1 -0 0 1 1 1 0 -0 0 -2 -1 -1 -4 -0 2 0 1 2 1 -4 -11 2 2 3 2 -4 -1 -1 -3 -2 -5 -0 -2 1 -2 -6 -6 2 1 5 2 -0 -4 -4 -2
8 4 1 1 1 -2 -1 -1 0 0 1 0 1 1 1 -1 -2 -2 -2 -1 -1 -3 -6 0 -0 -0 1 -0 1 -1 -5 -0 -3 3 -3 -1 -2 0 -3 -7 -4 -7 -1 -1 -3 3 0 4 2 0 0 -2 1 -3
14 2 6 -1 -4 -3 0 -0 -0 0 -0 -1 -1 0 -0 -1 -0 -1 -2 -1 -0 -3 -6 -0 4 -2 0 1 -1 -1 1 1 1 -3 -2 -3 -1 -1 1 -3 -1 -1 -5 -5 -8 -2 -2 -3 -1 -1 -2 -3 -1 1
2 13 3 1 -1 -1 -3 0 0 -1 1 1 0 0 1 0 -1 -3 -6 -1 0 -1 -5 -4 2 -0 0 2 5 -1 -1 0 -1 -4 -2 -0 3 2 -2 -1 -6 -3 8 -0 -6 -0 -1 0 -0 1 -1 -2 2 -0
-5 1 11 11 1 1 -2 -2 -1 -0 0 -0 -1 -1 -2 -0 0 -4 -2 -1 -2 -0 -5 -2 -2 -0 1 7 3 1 1 -1 -2 -1 1 -1 -2 1 -1 -1 -7 2 3 -2 -0 -2 -1 -1 -2 -1 -3 0 10 6
-7 -8 6 11 9 2 1 -2 1 1 -1 -1 -1 0 1 -0 1 -2 -0 -1 1 -4 -1 -3 -3 -2 1 -0 -2 -1 -1 -0 2 0 1 -2 -1 1 -1 -6 -2 8 5 1 -1 -2 -4 -3 -4 -4 8 12 -2 -2
2 -5 -9 5 3 6 2 -1 1 2 -0 -1 -2 -0 -0 -1 -3 -2 -0 -1 -1 -2 -4 -2 -4 -5 2 -0 0 -2 0 -2 1 -1 -0 0 -1 -3 -6 -2 4 -2 -8 -5 -2 2 -2 1 13 8 1 -1 -3 -4
4 2 -1 -3 -3 -4 -3 1 -0 -0 3 -1 -0 -6 -5 -0 1 -1 -3 -2 -1 1 -1 -4 3 -3 -3 -0 1 -2 1 -1 -1 -5 1 -0 -3 -5 -3 5 1 -2 2 3 -2 10 6 -0 -2 -2 -2 -4 -1 -0
1 0 3 -1 -4 -6 -5 -1 3 12 4 5 -5 -3 -1 2 -1 -1 -1 -2 0 -1 2 0 3 -3 6 -5 -2 -0 -1 -0 1 -4 -0 -1 -1 -3 4 4 5 4 0 -9 3 7 4 1 -2 -4 -2 0 -0 -2
-1 -0 0 -0 -3 0 1 -1 -2 6 -1 2 -5 -2 -0 -0 -2 -3 -1 -0 -0 -2 1 -0 1 -1 0 -0 -3 2 -2 1 -1 -1 1 -0 -1 7 -1 -0 2 1 4 5 0 -3 -4 -4 -4 -2 -3 -3 -1 -1
2 1 -2 -2 -3 -1 2 2 4 7 3 -1 -4 -2 -2 1 3 2 -0 -0 0 -1 -0 1 -1 -0 0 2 -0 -1 2 -3 1 2 -2 -1 1 6 1 0 2 5 0 -5 -6 -2 -1 -1 -1 -2 -2 0 1 -1
-1 -0 -1 1 0 -3 0 3 0 -0 -2 -7 -3 -0 -1 1 1 1 1 1 3 1 0 0 -1 -2 -0 -1 -0 -0 -1 -2 2 1 -3 0 0 -5 5 -1 -2 -2 0 0 -1 -3 -4 -4 -2 -0 0 1 -1 -0
-2 -2 -1 -1 -2 -1 -1 -1 -2 -4 -5 -4 -3 1 -0 -0 1 -1 -0 -0 1 3 -0 -2 -1 -2 0 -1 0 -0 1 0 -0 1 1 -0 10 1 -1 2 1 -0 -2 -3 -3 -1 1 1 1 -0 1 -1 -1 -2
-2 -1 -2 -4 -5 -4 -6 -5 -1 -2 -3 -2 -1 -1 1 -2 2 1 2 -1 1 1 -0 -1 -0 -1 0 -0 1 -0 -0 1 3 -1 -1 1 -2 2 1 0 1 1 -1 -0 1 1 1 -0 -2 -2 -0 -0 1 -1
-3 -3 -1 -3 -2 0 -1 -2 -3 -4 -3 -2 -0 2 1 -1 -1 -0 -1 -1 -1 -2 -0 -1 -2 1 0 -0 -0 0 1 -1 -5 3 9 8 -0 -1 -0 -1 -1 -0 -1 -1 -1 -1 -1 0 1 0 -2 -1 0 1
-5 -3 -2 -1 -1 1 -2 -2 -2 -1 -1 1 1 1 -0 0 2 1 -0 -0 -0 -0 -1 -2 -2 -1 -1 -1 0 -1 2 2 3 1 0 0 -0 -1 -0 -1 -2 -2 -2 -0 1 -0 -0 -0 -1 -4 -3 -1 1 6
-0 1 -1 1 -0 -1 -1 0 0 -2 3 -1 1 0 0 -1 -1 -2 -2 -1 0 -0 -2 -0 -2 -0 -1 0 -1 1 0 -1 -0 2 0 1 -1 -2 -2 -1 -2 -1 -0 -1 -2 -2 -2 -1 -2 -1 2 4 -1 -2
-3 -3 2 -0 -1 -0 -2 -1 0 0 2 2 1 1 -0 -1 -2 -1 -0 0 0 -0 -2 -1 -1 2 -1 2 1 0 -1 -0 -0 0 1 2 2 0 -1 -0 0 1 -1 0 1 4 -0 -4 2 5 4 1 -1 -5
-2 -4 -2 1 -3 -3 -2 -1 -2 0 1 2 3 -1 -1 -0 -0 -1 -1 -0 -1 -1 -1 1 2 2 1 0 -1 -0 2 2 1 0 -1 -2 1 1 -1 -1 0 -1 -1 -1 -1 -6 4 2 2 3 1 -1 -4 -2
-2 -2 -3 1 -1 -1 -2 0 2 0 -2 -1 4 1 -1 -0 -1 -0 -2 -0 -0 0 2 1 2 1 2 -1 0 0 1 1 1 -1 2 4 1 -2 -3 -1 -3 -4 -2 2 5 6 5 3 8 -2 -7 -4 -1 -2
-1 -3 -2 -1 -1 1 -0 -2 -1 1 -2 0 2 -1 -0 0 0 -0 -0 -1 -0 9 4 5 2 -2 -1 0 12 6 -0 3 6 4 -2 -2 -0 1 -4 -1 1 1 -4 -1 2 -1 -3 3 1 -5 -3 2 1 -2
2 -0 -0 0 4 2 -0 -1 3 -0 1 1 0 0 1 0 -2 1 -1 4 4 9 -2 0 0 1 11 9 -1 1 -1 2 3 3 -1 -5 -3 -0 0 -1 0 5 -0 0 -1 -3 -3 -5 -3 -2 10 7 -2 -0
0 -0 -0 1 -0 1 1 1 1 1 -0 -0 -1 1 -0 -2 -0 0 -1 4 1 1 -2 0 1 1 -0 4 2 -0 0 -1 -3 -3 -3 -3 -2 -1 -2 -1 0 -0 0 -3 -7 -4 -3 -3 1 25 1 -0 -0 -5
2 1 2 -0 -1 1 -1 -1 -0 -1 -1 0 0 1 -1 0 -0 -2 2 2 2 1 -4 -3 0 1 -1 -3 -2 -2 -4 -3 -1 -2 1 -1 -2 -1 -0 -2 -5 -8 -1 2 1 -1 -1 0 3 10 9 2 1 1
0 0 -2 1 5 -1 -1 1 1 -3 -0 -1 -0 1 -1 -1 -1 4 2 2 -0 0 -1 -1 -0 -0 -2 -1 -1 -1 -3 -1 -2 -1 1 8 0 0 0 -2 -3 -2 -1 -0 0 2 1 1 3 0 0 -0 1 4
-0 -0 -4 -3 1 2 -1 0 -0 -1 -1 2 -0 -2 -3 -3 2 2 1 -1 -1 1 -0 -1 0 -1 -3 -2 -1 -2 -1 0 -0 0 5 5 5 1 2 2 4 5 3 3 -0 -1 1 2 3 2 2 4 6 2
2 3 -0 -1 -0 -0 1 1 1 4 6 2 -2 1 2 1 3 2 0 -0 -0 -1 -0 -0 -1 -1 1 0 -0 -2 -4 -3 -6 -8 -5 -6 -11 -5 -2 -1 -2 -2 -2 -5 2 4 1 2 0 -1 8 10 3 3
-0 -0 1 -1 -0 1 2 1 1 -0 2 0 -0 -1 -1 0 1 1 -1 -1 -0 0 0 -0 -0 1 -0 -1 -2 -0 -2 -3 -2 -3 -4 -5 -6 -5 -4 -4 -4 -2 -2 -1 -3 -4 3 0 -3 8 8 7 5 -0
-3 -1 1 1 1 1 -1 -1 0 1 -2 1 0 -1 -1 -2 -0 -0 1 0 -1 -0 0 1 0 -1 -1 -1 -2 -1 0 -0 -1 0 1 0 -1 -2 -2 -2 -2 -3 -2 -2 -2 -0 0 -1 2 6 2 2 1 1
1 -0 2 0 3 0 -1 1 1 0 -1 -1 2 -1 1 1 1 -0 1 0 -1 1 1 0 -0 -1 -1 -1 0 -1 -2 -1 0 -1 -1 -1 -1 0 -0 -0 -0 -0 -1 -1 -0 1 -0 1 1 2 2 3 2 1
-1 -1 -2 -0 1 2 -1 -3 1 2 -0 4 2 2 1 2 0 -1 1 1 1 0 -0 -0 -0 -0 -1 -1 -3 -0 0 -0 0 1 -0 0 0 -1 -2 -1 -2 -1 -0 0 0 0 0 -2 1 1 1 1 1 2
Height
1403 1412 1420 1427 1434 1441 1447 1452 1457 1461 1465 1469 1471 1473 1476 1478 1480 1482 1484 1486 1487 1489 1493 1493 1493 1495 1499 1502 1513 1516 1522 1523 1527 1540 1549 1548 1546 1539 1535 1534 1544 1553 1563 1560 1559 1565 1565 1527 1530 1539 1536 1535 1536 1537
1404 1412 1420 1427 1434 1440 1446 1452 1457 1461 1465 1468 1471 1474 1476 1478 1480 1482 1484 1486 1488 1490 1494 1496 1497 1498 1500 1503 1507 1512 1514 1516 1519 1531 1537 1538 1540 1540 1542 1543 1526 1541 1534 1544 1545 1540 1523 1523 1523 1526 1527 1530 1533 1534
1403 1413 1421 1427 1434 1439 1445 1451 1456 1461 1465 1468 1471 1474 1476 1478 1480 1482 1484 1487 1488 1491 1496 1498 1499 1500 1502 1504 1505 1509 1513 1514 1516 1518 1526 1532 1538 1536 1544 1538 1523 1520 1520 1528 1529 1521 1521 1520 1523 1524 1526 1528 1529 1530
1405 1414 1422 1428 1434 1440 1445 1451 1456 1460 1464 1468 1471 1473 1476 1478 1480 1482 1485 1487 1489 1492 1495 1500 1499 1501 1502 1504 1505 1507 1509 1511 1513 1516 1520 1527 1533 1525 1531 1525 1525 1520 1517 1517 1520 1520 1522 1524 1523 1524 1525 1526 1527 1529
1407 1415 1422 1428 1435 1441 1446 1450 1455 1460 1464 1468 1471 1473 1476 1478 1480 1483 1485 1487 1489 1493 1495 1499 1500 1501 1502 1503 1505 1507 1509 1511 1512 1516 1520 1525 1521 1521 1519 1520 1523 1513 1514 1522 1522 1513 1514 1517 1521 1522 1522 1525 1527 1529
1410 1416 1424 1430 1436 1442 1446 1451 1455 1459 1463 1467 1470 1473 1476 1478 1481 1482 1486 1489 1490 1491 1494 1500 1501 1501 1502 1504 1506 1507 1508 1510 1512 1514 1517 1516 1515 1517 1524 1525 1510 1509 1508 1507 1509 1511 1513 1515 1519 1520 1521 1524 1527 1528
1416 1419 1424 1430 1436 1441 1446 1451 1455 1459 1463 1466 1470 1473 1476 1479 1481 1483 1486 1488 1489 1492 1494 1499 1501 1501 1502 1504 1504 1506 1508 1509 1511 1513 1513 1515 1514 1513 1516 1516 1504 1506 1505 1505 1507 1509 1513 1515 1516 1518 1520 1523 1525 1525
1424 1425 1427 1430 1435 1441 1446 1451 1455 1459 1463 1466 1470 1473 1476 1479 1482 1485 1486 1487 1489 1492 1493 1499 1502 1502 1502 1503 1505 1507 1508 1509 1510 1511 1512 1513 1513 1511 1511 1498 1498 1502 1502 1504 1506 1508 1511 1513 1517 1519 1521 1522 1522 1522
1431 1432 1433 1434 1436 1439 1445 1450 1455 1459 1463 1467 1470 1473 1477 1480 1482 1484 1486 1487 1489 1493 1491 1496 1500 1504 1502 1503 1505 1508 1508 1511 1511 1509 1510 1512 1511 1507 1497 1496 1496 1496 1498 1501 1506 1509 1511 1514 1517 1518 1519 1519 1520 1521
1436 1435 1438 1439 1440 1441 1445 1449 1454 1459 1463 1467 1472 1474 1477 1479 1482 1485 1487 1488 1488 1488 1490 1491 1494 1498 1500 1503 1506 1509 1509 1510 1511 1509 1509 1508 1501 1495 1494 1495 1494 1496 1498 1501 1505 1510 1511 1513 1516 1517 1518 1519 1518 1517
1440 1441 1441 1442 1443 1445 1447 1449 1453 1458 1462 1466 1470 1473 1475 1478 1482 1485 1485 1487 1488 1488 1487 1488 1489 1492 1497 1501 1504 1506 1507 1508 1507 1506 1507 1502 1497 1491 1491 1493 1495 1497 1499 1503 1508 1510 1511 1513 1515 1516 1516 1515 1514 1513
1445 1445 1444 1445 1445 1445 1446 1450 1452 1455 1458 1463 1467 1473 1476 1479 1481 1483 1484 1485 1485 1484 1485 1486 1488 1490 1494 1497 1499 1503 1504 1506 1503 1503 1504 1497 1493 1491 1492 1495 1497 1499 1502 1505 1507 1510 1511 1513 1514 1513 1512 1511 1509 1507
1448 1448 1448 1450 1449 1449 1450 1452 1454 1457 1459 1463 1466 1470 1473 1480 1480 1478 1474 1479 1480 1482 1484 1485 1488 1490 1492 1494 1496 1499 1500 1499 1500 1501 1499 1496 1494 1494 1496 1498 1500 1502 1504 1506 1508 1509 1510 1511 1511 1510 1508 1507 1505 1502
1451 1451 1453 1454 1454 1454 1455 1456 1457 1459 1461 1464 1469 1473 1475 1478 1479 1481 1481 1481 1482 1483 1483 1485 1487 1490 1491 1493 1494 1494 1496 1498 1496 1499 1501 1494 1496 1498 1499 1500 1501 1503 1505 1506 1507 1508 1508 1507 1506 1505 1503 1501 1499 1497
1454 1455 1456 1457 1458 1459 1459 1460 1460 1462 1463 1468 1471 1474 1478 1480 1481 1481 1482 1483 1483 1484 1485 1486 1488 1490 1491 1493 1493 1496 1497 1494 1494 1494 1497 1497 1498 1499 1501 1502 1503 1504 1505 1506 1506 1505 1504 1503 1502 1500 1498 1497 1495 1492
1458 1460 1460 1460 1461 1462 1461 1461 1461 1462 1466 1471 1474 1477 1479 1480 1481 1481 1482 1483 1484 1485 1486 1488 1489 1490 1493 1493 1493 1491 1492 1492 1498 1499 1499 1500 1500 1501 1502 1503 1504 1505 1505 1504 1503 1502 1501 1499 1497 1495 1493 1491 1490 1488
1460 1461 1462 1463 1464 1463 1463 1464 1464 1467 1470 1475 1477 1477 1478 1480 1481 1483 1483 1484 1485 1487 1488 1489 1490 1495 1495 1494 1494 1494 1496 1499 1499 1498 1499 1499 1500 1501 1502 1503 1503 1503 1501 1499 1498 1497 1496 1494 1492 1490 1488 1487 1485 1483
1463 1464 1465 1465 1465 1465 1465 1465 1467 1471 1475 1477 1478 1480 1480 1482 1483 1484 1485 1485 1486 1486 1488 1491 1492 1495 1496 1497 1494 1496 1497 1497 1498 1498 1499 1500 1500 1501 1502 1502 1501 1499 1498 1496 1494 1493 1491 1489 1487 1486 1484 1483 1481 1478
1464 1465 1467 1467 1467 1467 1467 1469 1470 1473 1477 1478 1479 1481 1482 1484 1486 1487 1487 1487 1487 1487 1489 1490 1493 1494 1494 1493 1494 1495 1496 1497 1497 1498 1499 1500 1501 1501 1501 1500 1498 1496 1494 1492 1490 1488 1486 1485 1483 1481 1480 1478 1475 1473
1465 1466 1467 1468 1470 1470 1470 1472 1473 1475 1477 1479 1481 1482 1484 1485 1487 1488 1489 1488 1489 1489 1490 1491 1491 1492 1493 1494 1495 1495 1495 1496 1497 1497 1498 1499 1499 1498 1498 1496 1494 1493 1490 1488 1486 1484 1482 1480 1478 1476 1474 1471 1468 1465
1466 1466 1468 1469 1470 1472 1473 1474 1475 1477 1479 1480 1482 1484 1486 1487 1488 1489 1489 1490 1490 1490 1490 1491 1491 1493 1493 1494 1495 1495 1495 1495 1495 1496 1497 1496 1496 1495 1494 1493 1491 1489 1487 1484 1481 1478 1477 1475 1472 1470 1468 1465 1462 1458
1467 1467 1468 1469 1470 1472 1474 1475 1477 1478 1480 1481 1483 1484 1487 1488 1488 1489 1490 1490 1490 1490 1491 1491 1491 1492 1492 1493 1493 1493 1494 1494 1494 1495 1495 1494 1493 1492 1490 1489 1487 1484 1481 1479 1476 1473 1470 1467 1464 1461 1459 1457 1453 1451
1468 1469 1469 1469 1470 1472 1476 1476 1477 1479 1481 1482 1484 1485 1487 1488 1488 1490 1490 1490 1490 1490 1490 1490 1490 1490 1491 1492 1493 1492 1492 1493 1493 1492 1491 1491 1490 1488 1485 1483 1482 1479 1474 1471 1469 1466 1462 1459 1456 1453 1450 1447 1445 1443
1467 1468 1468 1468 1468 1471 1474 1475 1476 1477 1479 1481 1482 1484 1484 1486 1488 1489 1488 1487 1489 1488 1488 1488 1488 1489 1491 1491 1490 1491 1491 1491 1491 1491 1489 1487 1484 1481 1479 1477 1475 1473 1469 1465 1461 1457 1454 1450 1446 1443 1441 1438 1438 1437
1469 1468 1469 1468 1469 1471 1472 1473 1474 1475 1477 1477 1480 1482 1483 1485 1487 1487 1486 1487 1488 1487 1488 1489 1489 1489 1490 1491 1490 1490 1489 1488 1487 1485 1484 1482 1479 1476 1473 1471 1470 1467 1463 1459 1455 1451 1448 1445 1440 1436 1435 1434 1432 1431
1465 1466 1467 1466 1467 1467 1467 1472 1472 1472 1474 1476 1478 1480 1481 1483 1486 1487 1484 1487 1488 1488 1489 1489 1488 1489 1488 1488 1488 1487 1486 1485 1483 1482 1481 1478 1475 1473 1470 1467 1464 1461 1460 1456 1451 1447 1444 1440 1437 1435 1432 1430 1428 1426
1463 1464 1465 1464 1464 1465 1466 1467 1468 1469 1473 1476 1475 1479 1480 1487 1487 1485 1486 1486 1487 1488 1488 1488 1488 1488 1487 1487 1486 1485 1483 1482 1481 1480 1479 1477 1473 1472 1469 1466 1461 1458 1455 1451 1448 1444 1440 1436 1433 1430 1427 1425 1423 1420
1462 1463 1464 1465 1465 1465 1466 1467 1468 1469 1469 1469 1473 1477 1481 1481 1482 1484 1485 1486 1486 1487 1487 1486 1486 1486 1485 1484 1484 1482 1481 1480 1479 1478 1478 1475 1472 1469 1466 1463 1459 1455 1450 1447 1443 1439 1436 1432 1429 1426 1423 1421 1419 1416
1462 1462 1463 1464 1465 1465 1466 1466 1466 1467 1468 1469 1470 1472 1477 1480 1482 1483 1483 1484 1484 1485 1485 1484 1483 1483 1483 1482 1481 1480 1478 1476 1474 1472 1471 1468 1465 1463 1459 1455 1451 1448 1444 1440 1437 1434 1431 1427 1424 1421 1419 1417 1414 1412
1461 1462 1464 1465 1465 1465 1467 1467 1468 1468 1469 1469 1471 1473 1476 1479 1481 1481 1482 1482 1483 1483 1483 1482 1482 1481 1480 1480 1479 1478 1476 1474 1472 1471 1468 1465 1462 1458 1454 1450 1446 1442 1438 1434 1430 1427 1425 1422 1419 1418 1415 1413 1411 1409
1463 1463 1464 1464 1465 1467 1467 1467 1468 1468 1469 1471 1472 1473 1475 1477 1480 1481 1482 1481 1481 1481 1481 1481 1480 1479 1479 1477 1476 1475 1474 1472 1470 1468 1465 1462 1458 1454 1450 1446 1442 1438 1434 1430 1426 1423 1421 1419 1418 1415 1413 1411 1409 1407
1464 1464 1464 1465 1467 1468 1468 1468 1469 1469 1470 1472 1473 1474 1476 1477 1479 1481 1481 1481 1480 1480 1480 1479 1479 1478 1476 1475 1474 1472 1470 1469 1467 1464 1460 1456 1453 1449 1445 1441 1437 1433 1430 1427 1424 1421 1419 1417 1415 1413 1411 1409 1407 1405
1466 1466 1466 1466 1467 1468 1469 1469 1469 1470 1471 1471 1472 1473 1474 1476 1478 1480 1480 1480 1480 1479 1479 1478 1477 1475 1474 1472 1470 1469 1467 1465 1462 1460 1456 1453 1450 1446 1442 1438 1434 1430 1427 1424 1422 1419 1417 1415 1413 1411 1409 1407 1406 1404